TimeCDT,TemperatureF,Dew PointF,Humidity,Sea Level PressureIn,VisibilityMPH,Wind Direction,Wind SpeedMPH,Gust SpeedMPH,PrecipitationIn,Events,Conditions,WindDirDegrees,DateUTC
12:15 AM,73.4,64.4,73,30.10,10.0,East,4.6,-,N/A,,Clear,100,2013-08-23 05:15:00
12:35 AM,71.6,64.4,78,30.10,10.0,ESE,5.8,-,N/A,,Clear,110,2013-08-23 05:35:00
12:55 AM,73.4,64.4,73,30.09,10.0,ESE,4.6,-,N/A,,Clear,120,2013-08-23 05:55:00
1:15 AM,71.6,64.4,78,30.09,10.0,Calm,Calm,-,N/A,,Clear,0,2013-08-23 06:15:00
1:36 AM,71.6,64.4,78,30.09,10.0,Calm,Calm,-,N/A,,Clear,0,2013-08-23 06:36:00
1:55 AM,69.8,64.4,83,30.08,9.0,Calm,Calm,-,N/A,,Clear,0,2013-08-23 06:55:00
2:35 AM,69.8,64.4,83,30.08,9.0,East,3.5,-,N/A,,Clear,90,2013-08-23 07:35:00
2:55 AM,69.8,62.6,78,30.07,9.0,Calm,Calm,-,N/A,,Clear,0,2013-08-23 07:55:00
3:15 AM,69.8,62.6,78,30.07,8.0,East,3.5,-,N/A,,Clear,100,2013-08-23 08:15:00
3:35 AM,69.8,62.6,78,30.08,8.0,East,3.5,-,N/A,,Clear,100,2013-08-23 08:35:00
3:56 AM,69.8,62.6,78,30.08,8.0,East,3.5,-,N/A,,Clear,80,2013-08-23 08:56:00
4:15 AM,69.8,62.6,78,30.07,8.0,East,3.5,-,N/A,,Clear,90,2013-08-23 09:15:00
4:35 AM,69.8,62.6,78,30.07,7.0,Calm,Calm,-,N/A,,Clear,0,2013-08-23 09:35:00
4:55 AM,69.8,62.6,78,30.08,8.0,East,3.5,-,N/A,,Clear,100,2013-08-23 09:55:00
5:15 AM,69.8,62.6,78,30.09,8.0,East,3.5,-,N/A,,Clear,100,2013-08-23 10:15:00
5:35 AM,68.0,62.6,83,30.09,7.0,East,3.5,-,N/A,,Clear,80,2013-08-23 10:35:00
5:55 AM,68.0,62.6,83,30.09,7.0,East,3.5,-,N/A,,Clear,100,2013-08-23 10:55:00
6:15 AM,68.0,62.6,83,30.09,7.0,Calm,Calm,-,N/A,,Clear,0,2013-08-23 11:15:00
6:35 AM,68.0,62.6,83,30.10,7.0,Calm,Calm,-,N/A,,Clear,0,2013-08-23 11:35:00
6:55 AM,68.0,62.6,83,30.10,7.0,East,3.5,-,N/A,,Clear,100,2013-08-23 11:55:00
7:16 AM,69.8,62.6,78,30.11,8.0,Calm,Calm,-,N/A,,Clear,0,2013-08-23 12:16:00
7:55 AM,69.8,62.6,78,30.11,10.0,East,4.6,-,N/A,,Clear,100,2013-08-23 12:55:00
8:15 AM,71.6,64.4,78,30.12,10.0,ESE,6.9,-,N/A,,Clear,110,2013-08-23 13:15:00
8:35 AM,73.4,64.4,73,30.13,10.0,ESE,6.9,-,N/A,,Clear,110,2013-08-23 13:35:00
8:55 AM,75.2,64.4,69,30.12,10.0,ESE,5.8,-,N/A,,Clear,110,2013-08-23 13:55:00
9:15 AM,75.2,66.2,73,30.13,10.0,ESE,3.5,-,N/A,,Scattered Clouds,110,2013-08-23 14:15:00
9:36 AM,78.8,66.2,65,30.13,10.0,ESE,6.9,-,N/A,,Mostly Cloudy,110,2013-08-23 14:36:00
9:55 AM,78.8,68.0,69,30.13,10.0,ESE,5.8,-,N/A,,Overcast,110,2013-08-23 14:55:00
10:15 AM,80.6,69.8,70,30.13,10.0,ESE,4.6,-,N/A,,Overcast,120,2013-08-23 15:15:00
10:35 AM,82.4,69.8,66,30.13,10.0,East,3.5,-,N/A,,Mostly Cloudy,80,2013-08-23 15:35:00
10:55 AM,84.2,69.8,62,30.13,10.0,ESE,5.8,-,N/A,,Partly Cloudy,120,2013-08-23 15:55:00
11:15 AM,84.2,69.8,62,30.13,10.0,SSE,5.8,-,N/A,,Clear,150,2013-08-23 16:15:00
11:35 AM,86.0,69.8,58,30.12,10.0,SSE,4.6,-,N/A,,Clear,160,2013-08-23 16:35:00
11:55 AM,87.8,69.8,55,30.12,10.0,ESE,4.6,-,N/A,,Clear,110,2013-08-23 16:55:00
12:15 PM,87.8,68.0,52,30.11,10.0,SSE,3.5,-,N/A,,Clear,160,2013-08-23 17:15:00
12:35 PM,87.8,66.2,49,30.10,10.0,ENE,4.6,-,N/A,,Clear,70,2013-08-23 17:35:00
12:55 PM,87.8,66.2,49,30.10,10.0,ENE,4.6,-,N/A,,Clear,60,2013-08-23 17:55:00
1:15 PM,89.6,66.2,46,30.10,10.0,SSE,5.8,-,N/A,,Clear,160,2013-08-23 18:15:00
1:56 PM,89.6,66.2,46,30.08,10.0,NE,6.9,-,N/A,,Clear,40,2013-08-23 18:56:00
2:15 PM,89.6,68.0,49,30.08,10.0,ENE,6.9,-,N/A,,Clear,60,2013-08-23 19:15:00
2:35 PM,89.6,66.2,46,30.07,10.0,East,4.6,-,N/A,,Clear,90,2013-08-23 19:35:00
2:55 PM,89.6,66.2,46,30.06,10.0,East,5.8,-,N/A,,Clear,90,2013-08-23 19:55:00
3:35 PM,89.6,66.2,46,30.05,10.0,ENE,5.8,-,N/A,,Clear,70,2013-08-23 20:35:00
3:56 PM,89.6,64.4,43,30.05,10.0,ESE,5.8,-,N/A,,Clear,120,2013-08-23 20:56:00
4:15 PM,89.6,64.4,43,30.05,10.0,SE,6.9,-,N/A,,Clear,130,2013-08-23 21:15:00
4:35 PM,89.6,66.2,46,30.04,10.0,ENE,4.6,-,N/A,,Clear,60,2013-08-23 21:35:00
4:55 PM,89.6,66.2,46,30.05,10.0,ESE,5.8,-,N/A,,Clear,120,2013-08-23 21:55:00
5:15 PM,89.6,64.4,43,30.05,10.0,Calm,Calm,-,N/A,,Clear,0,2013-08-23 22:15:00
5:35 PM,89.6,64.4,43,30.05,10.0,ESE,5.8,-,N/A,,Clear,120,2013-08-23 22:35:00
5:55 PM,89.6,68.0,49,30.04,10.0,West,5.8,-,N/A,,Clear,270,2013-08-23 22:55:00
6:15 PM,87.8,69.8,55,30.04,10.0,WSW,5.8,-,N/A,,Clear,250,2013-08-23 23:15:00
6:35 PM,86.0,68.0,55,30.04,10.0,WNW,5.8,-,N/A,,Clear,300,2013-08-23 23:35:00
6:55 PM,84.2,69.8,62,30.04,10.0,NW,4.6,-,N/A,,Clear,310,2013-08-23 23:55:00
7:35 PM,80.6,68.0,65,30.04,10.0,Calm,Calm,-,N/A,,Clear,0,2013-08-24 00:35:00
7:55 PM,80.6,66.2,61,30.04,10.0,NNE,3.5,-,N/A,,Clear,20,2013-08-24 00:55:00
8:15 PM,78.8,66.2,65,30.05,10.0,Calm,Calm,-,N/A,,Clear,0,2013-08-24 01:15:00
8:35 PM,77.0,66.2,69,30.05,10.0,Calm,Calm,-,N/A,,Clear,0,2013-08-24 01:35:00
8:56 PM,77.0,66.2,69,30.06,10.0,Calm,Calm,-,N/A,,Clear,0,2013-08-24 01:56:00
9:15 PM,75.2,66.2,73,30.07,10.0,Calm,Calm,-,N/A,,Clear,0,2013-08-24 02:15:00
9:35 PM,75.2,66.2,73,30.07,10.0,ESE,3.5,-,N/A,,Clear,120,2013-08-24 02:35:00
9:55 PM,73.4,66.2,78,30.08,10.0,SE,3.5,-,N/A,,Clear,140,2013-08-24 02:55:00
10:15 PM,75.2,66.2,73,30.08,10.0,ESE,5.8,-,N/A,,Clear,120,2013-08-24 03:15:00
10:35 PM,77.0,66.2,69,30.09,10.0,ESE,5.8,-,N/A,,Clear,110,2013-08-24 03:35:00
10:55 PM,75.2,66.2,73,30.09,10.0,SE,5.8,-,N/A,,Clear,140,2013-08-24 03:55:00
11:15 PM,75.2,66.2,73,30.09,10.0,SE,5.8,-,N/A,,Clear,130,2013-08-24 04:15:00
11:35 PM,75.2,66.2,73,30.09,10.0,SE,4.6,-,N/A,,Clear,130,2013-08-24 04:35:00
11:55 PM,73.4,66.2,78,30.09,10.0,SE,5.8,-,N/A,,Clear,130,2013-08-24 04:55:00